CST,Max TemperatureF,Mean TemperatureF,Min TemperatureF,Max Dew PointF,MeanDew PointF,Min DewpointF,Max Humidity, Mean Humidity, Min Humidity, Max Sea Level PressureIn, Mean Sea Level PressureIn, Min Sea Level PressureIn, Max VisibilityMiles, Mean VisibilityMiles, Min VisibilityMiles, Max Wind SpeedMPH, Mean Wind SpeedMPH, Max Gust SpeedMPH,PrecipitationIn, CloudCover, Events, WindDirDegrees
2012-11-1,66,48,30,40,34,25,85,63,40,30.03,29.98,29.91,10,10,9,14,5,18,0.00,3,,288
2012-11-2,52,42,32,33,31,28,82,66,50,30.11,30.05,30.00,10,10,10,16,9,22,0.00,1,,74
2012-11-3,54,42,30,37,32,29,85,68,50,30.23,30.14,30.03,10,10,10,15,7,20,0.00,3,,49
2012-11-4,49,40,30,40,35,28,96,81,66,30.28,30.22,30.12,10,9,4,10,5,14,0.10,6,Rain,143
2012-11-5,40,39,38,40,38,37,100,96,92,30.16,30.09,30.03,5,3,2,16,10,20,0.32,8,Rain,88
2012-11-6,53,46,38,43,38,33,100,77,54,30.12,30.00,29.90,10,4,0,18,9,30,0.03,8,Fog-Rain,251
2012-11-7,48,40,31,37,33,28,92,75,58,30.19,30.12,29.99,10,10,10,20,7,28,0.00,5,,15
2012-11-8,58,43,28,39,35,26,92,72,51,30.19,30.09,30.01,10,10,10,17,9,21,0.00,0,,156
2012-11-9,67,53,38,55,47,35,92,75,58,30.00,29.91,29.84,10,10,10,16,9,22,0.00,1,,168
2012-11-10,75,67,59,56,52,47,80,62,44,29.86,29.80,29.74,10,10,10,26,17,39,T,1,,188
2012-11-11,64,45,26,57,48,19,100,84,67,30.18,29.84,29.69,10,6,0,25,14,33,1.23,7,Fog-Rain-Thunderstorm,282
2012-11-12,40,31,22,21,19,17,84,64,44,30.46,30.33,30.20,10,10,10,25,9,35,0.00,0,,262
2012-11-13,50,35,19,31,24,16,91,64,36,30.52,30.46,30.41,10,10,10,13,6,16,0.00,0,,166
2012-11-14,56,43,29,29,27,25,85,59,32,30.46,30.40,30.34,10,10,10,14,7,18,0.00,1,,172
2012-11-15,57,44,30,32,28,23,92,64,35,30.41,30.35,30.32,10,10,10,12,5,16,0.00,1,,201
2012-11-16,58,45,31,37,33,29,92,66,40,30.49,30.45,30.41,10,9,5,9,4,10,0.00,0,,64
2012-11-17,59,45,31,35,31,28,89,65,40,30.49,30.42,30.36,10,9,7,16,8,21,0.00,0,,150
2012-11-18,62,47,31,35,31,27,89,60,30,30.37,30.30,30.23,10,10,8,16,9,20,0.00,0,,157
2012-11-19,59,50,41,48,44,34,100,78,56,30.23,30.13,30.07,10,8,0,17,9,24,0.05,3,Fog,190
2012-11-20,63,48,32,46,40,34,100,78,55,30.24,30.16,30.07,10,4,0,8,5,12,0.00,2,Fog-Snow,293
2012-11-21,66,49,31,46,40,34,100,72,44,30.25,30.18,30.04,10,5,0,15,8,20,0.00,0,Fog,197
2012-11-22,68,55,41,50,40,32,76,61,46,30.19,29.97,29.83,10,10,9,25,14,33,T,2,Rain,224
2012-11-23,42,32,21,31,19,14,82,63,44,30.43,30.34,30.18,10,10,10,26,13,38,0.00,1,,299
2012-11-24,36,25,14,21,16,12,88,68,47,30.40,30.23,29.95,10,10,10,12,6,15,0.00,0,,219
2012-11-25,46,36,25,30,26,22,85,67,49,30.14,29.99,29.91,10,10,10,14,6,17,0.00,0,,342
2012-11-26,35,26,16,25,19,9,88,72,56,30.49,30.33,30.14,10,10,7,18,11,24,T,2,Snow,8
2012-11-27,35,23,10,17,12,8,92,65,38,30.50,30.41,30.32,10,10,10,14,5,16,0.00,0,,236
2012-11-28,48,33,18,27,23,14,85,65,45,30.45,30.36,30.25,10,10,9,10,5,14,0.00,0,,184
2012-11-29,56,42,27,37,32,25,85,66,47,30.24,30.11,30.03,10,10,9,16,7,22,0.00,0,,180
2012-11-30,59,47,34,37,35,32,89,67,44,30.10,30.06,30.01,10,10,9,13,6,17,0.00,0,,222